HI1010 EINN-CYQX

Flight info

Callsign HI1010
Flight time N/A
Altitude 43000
Route BUNON DCT GIPER DCT ATSUR DCT SOMAX/M086F390 DCT 51N020W 51N030W 51N040W 50N050W DCT ELSIR/N0497F470 DCT AVSIV
Aircraft C750/M-SBDE3FGHRWXY/S

Departure

Time 2026-05-04 05:48
Airport Shannon Airport (EINN)

Arrival

Time N/A
Airport Gander International Airport (CYQX)
Time Latitude Longitude Altitude Speed Heading
2026-05-04 05:23 52.69368 -8.91650 19 ft 0 kts 129°
2026-05-04 05:35 52.69365 -8.91643 21 ft 1 kts 129°
2026-05-04 05:35 52.69355 -8.91623 20 ft 3 kts 129°
2026-05-04 05:35 52.69336 -8.91592 19 ft 5 kts 144°
2026-05-04 05:35 52.69304 -8.91567 19 ft 6 kts 166°
2026-05-04 05:36 52.69269 -8.91594 19 ft 6 kts 253°
2026-05-04 05:36 52.69290 -8.91654 21 ft 7 kts 310°
2026-05-04 05:36 52.69324 -8.91714 19 ft 8 kts 319°
2026-05-04 05:36 52.69377 -8.91751 19 ft 9 kts 342°
2026-05-04 05:37 52.69430 -8.91807 19 ft 10 kts 302°
2026-05-04 05:37 52.69454 -8.91919 19 ft 11 kts 284°
2026-05-04 05:37 52.69472 -8.92049 21 ft 12 kts 283°
2026-05-04 05:38 52.69540 -8.92331 20 ft 14 kts 302°
2026-05-04 05:38 52.69609 -8.92456 19 ft 15 kts 315°
2026-05-04 05:38 52.69687 -8.92583 20 ft 16 kts 315°
2026-05-04 05:38 52.69769 -8.92714 19 ft 17 kts 315°
2026-05-04 05:39 52.69852 -8.92849 21 ft 16 kts 315°
2026-05-04 05:39 52.69880 -8.92896 24 ft 0 kts 315°
2026-05-04 05:45 52.69883 -8.92900 25 ft 2 kts 315°
2026-05-04 05:47 52.69968 -8.92980 35 ft 0 kts 53°
2026-05-04 05:47 52.70161 -8.92570 30 ft 96 kts 52°
2026-05-04 05:48 52.70626 -8.91585 68 ft 144 kts 50°
2026-05-04 05:48 52.71201 -8.90233 593 ft 143 kts 53°
2026-05-04 05:48 52.71772 -8.88844 1214 ft 148 kts 53°
2026-05-04 05:48 52.72369 -8.87484 1931 ft 143 kts 51°
2026-05-04 05:49 52.73257 -8.86818 2372 ft 156 kts 358°
2026-05-04 05:49 52.74295 -8.87408 2871 ft 167 kts 329°
2026-05-04 05:49 52.74848 -8.89165 3266 ft 193 kts 274°
2026-05-04 05:49 52.74376 -8.91379 3725 ft 215 kts 240°
2026-05-04 05:51 52.66387 -9.08290 8567 ft 300 kts 220°
2026-05-04 05:51 52.64761 -9.10474 9491 ft 304 kts 219°
2026-05-04 05:52 52.63100 -9.12693 10281 ft 309 kts 219°
2026-05-04 05:52 52.61423 -9.14931 11009 ft 313 kts 219°
2026-05-04 05:52 52.60278 -9.16463 11499 ft 315 kts 219°
2026-05-04 05:52 52.58591 -9.18725 12223 ft 319 kts 219°
2026-05-04 05:53 52.56856 -9.21053 12946 ft 323 kts 219°
2026-05-04 05:54 52.45305 -9.39807 17494 ft 351 kts 227°
2026-05-04 05:55 52.43646 -9.42791 18168 ft 356 kts 229°
2026-05-04 05:55 52.42015 -9.45885 18787 ft 361 kts 230°
2026-05-04 05:55 52.40367 -9.49027 19395 ft 365 kts 229°
2026-05-04 05:55 52.38676 -9.52166 19981 ft 371 kts 229°
2026-05-04 05:56 52.36941 -9.55364 20475 ft 380 kts 229°
2026-05-04 05:56 52.35184 -9.58658 20939 ft 389 kts 230°
2026-05-04 05:56 52.33399 -9.62036 21418 ft 397 kts 230°
2026-05-04 05:56 52.31560 -9.65479 21899 ft 405 kts 229°
2026-05-04 05:57 52.29681 -9.68971 22393 ft 412 kts 229°
2026-05-04 05:57 52.27778 -9.72515 22889 ft 418 kts 229°
2026-05-04 05:57 52.25866 -9.76085 23384 ft 425 kts 229°
2026-05-04 05:57 52.23904 -9.79737 23838 ft 431 kts 229°
2026-05-04 05:58 52.21892 -9.83469 24348 ft 435 kts 229°
2026-05-04 05:58 52.19886 -9.87185 24817 ft 439 kts 229°
2026-05-04 05:58 52.17859 -9.90939 25288 ft 443 kts 229°
2026-05-04 05:58 52.15814 -9.94722 25764 ft 447 kts 229°
2026-05-04 05:59 52.13777 -9.98482 26244 ft 450 kts 229°
2026-05-04 05:59 52.11683 -10.02339 26691 ft 455 kts 229°
2026-05-04 05:59 52.09581 -10.06208 27180 ft 458 kts 229°
2026-05-04 05:59 52.07458 -10.10107 27660 ft 462 kts 229°
2026-05-04 06:00 52.05301 -10.14064 28151 ft 466 kts 229°
2026-05-04 06:00 52.03139 -10.18025 28637 ft 470 kts 229°
2026-05-04 06:00 52.00959 -10.22010 29106 ft 475 kts 229°
2026-05-04 06:00 51.98751 -10.26040 29591 ft 479 kts 229°
2026-05-04 06:01 51.96555 -10.30043 30054 ft 483 kts 229°
2026-05-04 06:01 51.94312 -10.34126 30459 ft 487 kts 229°
2026-05-04 06:03 51.78067 -10.63491 33160 ft 513 kts 228°
2026-05-04 06:03 51.75669 -10.67797 33523 ft 517 kts 228°
2026-05-04 06:05 51.58551 -10.98321 36272 ft 527 kts 228°
2026-05-04 06:05 51.53636 -11.07016 37043 ft 529 kts 228°
2026-05-04 06:05 51.51154 -11.11395 37398 ft 530 kts 228°
2026-05-04 06:06 51.48668 -11.15774 37710 ft 531 kts 228°
2026-05-04 06:06 51.46177 -11.20155 38004 ft 532 kts 228°
2026-05-04 06:06 51.43683 -11.24534 38230 ft 534 kts 228°
2026-05-04 06:06 51.41165 -11.28945 38452 ft 536 kts 229°
2026-05-04 06:07 51.38640 -11.33362 38668 ft 537 kts 229°
2026-05-04 06:07 51.36105 -11.37789 38839 ft 539 kts 229°
2026-05-04 06:07 51.33567 -11.42213 38996 ft 540 kts 229°
2026-05-04 06:07 51.31049 -11.46595 39132 ft 541 kts 229°
2026-05-04 06:08 51.28491 -11.51037 39254 ft 543 kts 229°
2026-05-04 06:08 51.25931 -11.55477 39396 ft 544 kts 229°
2026-05-04 06:08 51.23354 -11.59937 39508 ft 545 kts 228°
2026-05-04 06:08 51.20776 -11.64390 39613 ft 546 kts 228°
2026-05-04 06:09 51.18192 -11.68846 39731 ft 547 kts 228°
2026-05-04 06:11 50.97601 -12.04828 40225 ft 551 kts 234°
2026-05-04 06:11 50.95340 -12.09656 40590 ft 541 kts 235°
2026-05-04 06:13 50.80398 -12.40419 42951 ft 493 kts 233°
2026-05-04 06:14 50.67544 -12.66604 43054 ft 515 kts 234°
2026-05-04 06:14 50.65341 -12.71075 43058 ft 518 kts 233°
2026-05-04 06:15 50.60877 -12.80079 43061 ft 524 kts 233°
2026-05-04 06:15 50.56371 -12.89150 43064 ft 527 kts 233°
2026-05-04 06:16 50.51854 -12.98206 43067 ft 529 kts 233°
2026-05-04 06:16 50.47299 -13.07310 43064 ft 530 kts 233°
2026-05-04 06:17 50.42741 -13.16386 43067 ft 529 kts 233°
2026-05-04 06:17 50.38174 -13.25449 43068 ft 528 kts 233°
2026-05-04 06:18 50.33655 -13.34384 43063 ft 525 kts 233°
2026-05-04 06:20 50.15563 -13.69863 43068 ft 520 kts 233°
2026-05-04 06:21 50.04264 -13.91830 43073 ft 517 kts 235°
2026-05-04 06:22 50.00883 -14.01594 43075 ft 511 kts 253°
2026-05-04 06:25 50.00086 -14.78010 43122 ft 514 kts 273°
2026-05-04 06:26 50.00041 -14.89156 43127 ft 516 kts 271°
2026-05-04 06:26 50.00627 -15.00209 43109 ft 509 kts 285°
2026-05-04 06:27 50.08166 -15.24462 43136 ft 499 kts 297°
2026-05-04 06:28 50.11195 -15.34192 43147 ft 499 kts 300°
2026-05-04 06:28 50.14441 -15.43770 43146 ft 501 kts 299°
2026-05-04 06:29 50.17530 -15.53521 43143 ft 502 kts 299°
2026-05-04 06:29 50.20732 -15.63235 43149 ft 504 kts 299°
2026-05-04 06:30 50.23865 -15.73046 43164 ft 505 kts 298°
2026-05-04 06:30 50.27040 -15.82866 43158 ft 506 kts 299°
2026-05-04 06:31 50.30170 -15.92669 43169 ft 506 kts 298°
2026-05-04 06:31 50.33316 -16.02523 43166 ft 506 kts 298°
2026-05-04 06:33 50.45799 -16.42062 43168 ft 506 kts 298°
2026-05-04 06:34 50.46323 -16.43731 43170 ft 506 kts 298°